Warning: Javascript must be enabled to use all the features on this page!


Page Loading - Please Wait...

Click to hideNews Bulletins

Peak Streamflow for the Nation

USGS 06696980 TARRYALL CREEK AT UPPER STATION NEAR COMO, CO

Park County, Colorado
Hydrologic Unit Code 10190001
Latitude  39°20'22", Longitude 105°54'40" NAD27
Drainage area 23.9  square miles
Gage datum 9,935 feet above NGVD29
Output formats
Table
Graph
Tab-separated file
peakfq (watstore) format
Reselect output format
Water
Year
Date Gage
Height
(feet)
Stream-
flow
(cfs)
1978 1978-06-15 2.98 159
1979 1979-06-16 2.88 146
1980 1980-06-12   1701,2
1981 1981-07-02 1.12 28.0
1982 1982-06-17 2.12 96.0
1983 1983-06-21 2.58 166
1984 1984-05-25 2.57 162
1985 1985-06-08 2.31 146
1986 1986-06-08 1.73 84.0
2002 2002-06-04 4.352,6 16.0
2003 2003-06-01 5.39 129
2004 2004-06-18 4.46 28.0
2005 2005-05-24 4.88 77.0
2006 2006-05-22 4.98 124
2007 2007-05-20 5.29 149
2008 2008-06-03 4.98 96.0
2009 2009-05-31 5.06 109
2010 2010-06-13 5.09 113
2011 2011-07-19 5.08 127
2012 2012-05-08 4.09 17.0
2013 2013-06-10 5.00 127
2014 2014-05-30 5.86 270
2015 2015-06-14 6.34 4592,9
2016 2016-06-11 5.42 1309
2017 2017-06-08 5.17 81.69
2018 2018-05-25 5.91 54.0
2019 2019-06-13 7.06 162
2020 2020-06-06 6.19 79.7
2021 2021-06-08 6.40 103
?
  Peak Gage-Height Qualification Codes.
?
  Peak Streamflow Qualification Codes.